This demonstration page uses our WeatherBlox Daily Observations layout. Learn more.

Left ArrowRight Arrow

39.51506, -84.39828

Hourly Observations for August 26, 2021

Temp ( °F °C ) Dew Point ( °F °C ) Humidity (%) Winds ( mph kmh ) Pressure ( in mb ) Visibility ( mi km ) Precip ( " mm )
12:15 am 00:15 Clear 72 22 N/A N/A N N/A 30.12 1020 7 11 N/A
12:35 am 00:35 Clear 72 22 N/A N/A N N/A 30.13 1020 7 11 N/A
12:55 am 00:55 Partly Cloudy 72 22 N/A N/A WNW 3 6 30.14 1021 10 16 N/A
1:15 am 01:15 Cloudy 72 22 N/A N/A N N/A 30.15 1021 7 11 N/A
1:35 am 01:35 Cloudy 72 22 N/A N/A N N/A 30.14 1021 10 16 N/A
1:55 am 01:55 Partly Cloudy 72 22 N/A N/A N N/A 30.14 1021 10 16 N/A
2:15 am 02:15 Clear 70 21 N/A N/A N N/A 30.13 1020 7 11 N/A
2:35 am 02:35 Clear 70 21 N/A N/A N N/A 30.13 1020 10 16 N/A
2:55 am 02:55 Hazy 70 21 N/A N/A N N/A 30.12 1020 5 8 N/A
3:15 am 03:15 Hazy 70 21 N/A N/A N N/A 30.13 1020 7 11 N/A
3:35 am 03:35 Hazy 68 20 N/A N/A N N/A 30.14 1021 5 8 N/A
3:55 am 03:55 Clear 70 21 N/A N/A W 3 6 30.14 1021 10 16 N/A
4:15 am 04:15 Clear 68 20 N/A N/A NNW 6 9 30.15 1021 7 11 N/A
4:35 am 04:35 Clear 70 21 N/A N/A N N/A 30.14 1021 7 11 N/A
4:55 am 04:55 Hazy 70 21 N/A N/A N N/A 30.14 1021 7 11 N/A
5:15 am 05:15 Cloudy with Haze 70 21 N/A N/A N N/A 30.14 1021 7 11 N/A
5:35 am 05:35 Mostly Cloudy with Haze 70 21 N/A N/A N N/A 30.15 1021 7 11 N/A
5:55 am 05:55 Hazy 70 21 N/A N/A N N/A 30.15 1021 5 8 N/A
6:15 am 06:15 Mostly Cloudy with Haze 68 20 N/A N/A N N/A 30.15 1021 5 8 N/A
6:35 am 06:35 Partly Cloudy 70 21 N/A N/A E 3 6 30.15 1021 10 16 N/A
6:55 am 06:55 Hazy 68 20 N/A N/A E 3 6 30.15 1021 5 8 N/A
7:15 am 07:15 Hazy 68 20 N/A N/A N N/A 30.15 1021 7 11 N/A
7:35 am 07:35 Sunny 70 21 N/A N/A N N/A 30.15 1021 7 11 N/A
7:55 am 07:55 Sunny 72 22 N/A N/A N N/A 30.15 1021 10 16 N/A
8:15 am 08:15 Sunny 72 22 N/A N/A N N/A 30.15 1021 10 16 N/A
8:35 am 08:35 Sunny 73 23 73 22.8 99 99 N N/A 30.16 1021 10 16 N/A
8:55 am 08:55 Sunny 75 24.1 73 22.9 93 93 N N/A 30.15 1021 10 16 N/A
9:15 am 09:15 Sunny 77 25.1 73 22.5 86 86 N N/A 30.15 1021 10 16 N/A
9:35 am 09:35 Sunny 79 26 73 22.7 82 82 N N/A 30.14 1021 10 16 N/A
9:55 am 09:55 Sunny 80 26.9 74 23.1 80 80 SW 3 6 30.14 1021 10 16 N/A
10:15 am 10:15 Sunny 82 27.9 73 23 75 75 S 3 6 30.14 1021 10 16 N/A
10:35 am 10:35 Sunny 83 28.6 74 23.1 72 72 SSE 5 7 30.13 1020 10 16 N/A
10:55 am 10:55 Sunny 85 29.4 74 23.6 71 71 SW 7 11 30.13 1020 10 16 N/A
11:15 am 11:15 Sunny 85 29.5 74 23.4 70 70 SSW 6 9 30.13 1020 10 16 N/A
11:35 am 11:35 Sunny 87 30.4 74 23.5 67 67 S 6 9 30.13 1020 10 16 N/A
11:55 am 11:55 Sunny 87 30.8 74 23.4 65 65 SE 6 9 30.13 1020 10 16 N/A
12:15 pm 12:15 Sunny 88 31.1 73 22.9 62 62 SW 6 9 30.13 1020 10 16 N/A
12:35 pm 12:35 Sunny 90 32 72 22 55 55 S 6 9 30.12 1020 10 16 N/A
12:55 pm 12:55 Sunny 90 32 73 23 59 59 NW 5 7 30.11 1020 10 16 N/A
1:15 pm 13:15 Sunny 90 32 73 23 59 59 S 6 9 30.11 1020 10 16 N/A
1:35 pm 13:35 Partly Cloudy 91 32.8 72 22.4 54 54 W 5 7 30.11 1019 10 16 N/A
1:55 pm 13:55 Partly Cloudy 92 33.2 72 22 52 52 WSW 8 13 30.10 1019 10 16 N/A
2:15 pm 14:15 Partly Cloudy 92 33.6 71 21.9 50 50 W 9 15 30.08 1019 10 16 N/A
2:35 pm 14:35 Mostly Cloudy 91 33 72 22 52 52 SW 7 11 30.07 1018 10 16 N/A
2:55 pm 14:55 Cloudy 87 30.6 72 22.3 61 61 NE 8 13 30.07 1018 10 16 N/A
3:15 pm 15:15 Mostly Cloudy with Strong Thunderstorms 78 25.7 72 22.1 81 81 NE 21 33 30.11 1020 3 5 0.06 1.52
3:35 pm 15:35 Cloudy with Strong Thunderstorms 71 21.9 71 21.5 98 98 N 22 35 30.13 1020 5 8 0.25 6.35
3:55 pm 15:55 Cloudy with Strong Thunderstorms 70 21 70 21 100 100 NNE 16 26 30.12 1020 2 3 0.55 13.97
4:15 pm 16:15 Cloudy with Strong Thunderstorms 70 21 N/A N/A NW 7 11 30.14 1021 7 11 0.28 7.11
4:35 pm 16:35 Mostly Cloudy with Thunderstorms 72 22 70 21 94 94 NNW 9 15 30.15 1021 10 16 0.50 12.70
4:55 pm 16:55 Partly Cloudy with Thunderstorms 72 22.1 71 21.4 96 96 N N/A 30.16 1021 10 16 0.57 14.48
5:15 pm 17:15 Mostly Cloudy with Thunderstorms 72 22 72 22 100 100 ESE 8 13 30.17 1022 5 8 0.03 0.76
5:35 pm 17:35 Mostly Cloudy 72 22 N/A N/A E 8 13 30.17 1022 5 8 0.06 1.52
5:55 pm 17:55 Mostly Cloudy 72 22 N/A N/A NE 5 7 30.15 1021 7 11 0.10 2.54
6:15 pm 18:15 Partly Cloudy with Light Rain 72 22 N/A N/A NE 8 13 30.12 1020 10 16 0.02 0.51
6:35 pm 18:35 Partly Cloudy with Light Rain 72 22 N/A N/A N N/A 30.11 1020 10 16 0.03 0.76
6:55 pm 18:55 Partly Cloudy with Light Rain 72 22 N/A N/A N N/A 30.09 1019 10 16 0.04 1.02
7:15 pm 19:15 Sunny 72 22 N/A N/A WNW 5 7 30.10 1019 10 16 N/A
7:35 pm 19:35 Sunny 72 22 N/A N/A NE 6 9 30.09 1019 10 16 N/A
7:55 pm 19:55 Sunny 73 23 N/A N/A N N/A 30.11 1020 10 16 N/A
8:15 pm 20:15 Partly Cloudy 72 22 N/A N/A N 5 7 30.12 1020 10 16 N/A
8:35 pm 20:35 Partly Cloudy 72 22 N/A N/A N N/A 30.13 1020 10 16 N/A
8:55 pm 20:55 Clear 72 22 N/A N/A WNW 3 6 30.13 1020 10 16 N/A
9:15 pm 21:15 Partly Cloudy 72 22 N/A N/A E 5 7 30.13 1020 10 16 N/A
9:35 pm 21:35 Partly Cloudy 72 22 N/A N/A ESE 5 7 30.15 1021 10 16 N/A
9:55 pm 21:55 Partly Cloudy 72 22 N/A N/A N N/A 30.15 1021 10 16 N/A
10:15 pm 22:15 Partly Cloudy 72 22 N/A N/A N N/A 30.14 1021 10 16 N/A
10:35 pm 22:35 Hazy 72 22 N/A N/A N N/A 30.14 1021 7 11 N/A
10:55 pm 22:55 Hazy 70 21 N/A N/A N N/A 30.14 1021 5 8 N/A
11:15 pm 23:15 Partly Cloudy 70 21 N/A N/A NNW 5 7 30.13 1020 7 11 N/A
11:35 pm 23:35 Partly Cloudy 70 21 N/A N/A N N/A 30.13 1020 10 16 N/A
11:55 pm 23:55 Clear 72 22 N/A N/A N N/A 30.13 1020 10 16 N/A

Powered by AerisWeather